Change the Weather History Date:

Saturday, December 7, 2013

  Actual Average (LRAR) Record (LRAR)
Temperature  
Mean Temperature 34 °F -  
Max Temperature 39 °F 38 °F 57 °F (2006)
Min Temperature 29 °F 27 °F 22 °F (2012)
Degree Days  
Heating Degree Days 31    
Moisture  
Dew Point 23 °F    
Average Humidity 61    
Maximum Humidity 93    
Minimum Humidity 35    
Precipitation  
Precipitation 0.00 in 0.05 in - ()
Sea Level Pressure  
Sea Level Pressure 30.12 in    
Wind  
Wind Speed 16 mph ()    
Max Wind Speed 32 mph    
Max Gust Speed 48 mph    
Visibility 6.7 miles    
Events Snow    
Averages and records for this station are not official NWS values.
T = Trace of Precipitation, MM = Missing Value Source: Averaged Metar Reports

Daily Weather History Graph

Daily Weather History Graph

Search for Another Location

Airport or City:

Trip Planner

Search our weather history database for the weather conditions in past years. The results will help you decide how hot, cold, wet, or windy it might be!

Date:

Astronomy

Dec. 07, 2013 Rise Set
Actual Time 7:08 AM CET 3:53 PM CET
Civil Twilight 6:34 AM CET 4:28 PM CET
Nautical Twilight 5:56 AM CET 5:05 PM CET
Astronomical Twilight 5:19 AM CET 5:42 PM CET
Moon 10:31 AM CET (12/7) 9:26 PM CET (12/7)
Length of Visible Light 9h 53m
Length of Day
8h 45m
Waxing Crescent, 26% of the Moon is Illuminated
Dec 7
Waxing Crescent
Dec 9
First Quarter
Dec 17
Full
Dec 25
Last Quarter
Jan 1
New

Hourly Weather History & Observations

Time (CET) Temp. Windchill Dew Point Humidity Pressure Visibility Wind Dir Wind Speed Gust Speed Precip Events Conditions
12:45 AM 32.0 °F 22.5 °F 23.0 °F 69% 29.98 in - WSW 12.7 mph - N/A   Clear
1:00 AM 32 °F - 24 °F 61% 29.98 in 19 mi WSW 11.2 mph - -   Partly Cloudy
1:45 AM 33.8 °F 24.8 °F 23.0 °F 65% 29.98 in - WSW 12.7 mph - N/A   Clear
2:45 AM 33.8 °F 23.5 °F 23.0 °F 65% 29.98 in - West 16.1 mph - N/A   Clear
3:45 AM 32.0 °F 22.5 °F 23.0 °F 69% 29.98 in - West 12.7 mph - N/A   Clear
4:45 AM 32.0 °F 21.6 °F 23.0 °F 69% 29.98 in - West 15.0 mph - N/A   Clear
5:15 AM 32.0 °F 21.2 °F 21.2 °F 64% 29.98 in - West 16.1 mph - N/A   Clear
5:37 AM 33.8 °F 22.8 °F 23.0 °F 65% 30.04 in - NW 18.4 mph - N/A   Unknown
5:39 AM 33.8 °F 22.8 °F 23.0 °F 65% 30.04 in - NW 18.4 mph - N/A   Clear
5:45 AM 33.8 °F 22.2 °F 23.0 °F 65% 30.04 in - NW 20.7 mph - N/A   Clear
6:12 AM 32.0 °F 20.8 °F 28.4 °F 87% 30.06 in 6.2 mi WNW 17.3 mph - N/A Snow Light Snow
6:15 AM 32.0 °F 20.8 °F 28.4 °F 87% 30.04 in 6.2 mi NW 17.3 mph - N/A Snow Light Snow
6:45 AM 30.2 °F 19.8 °F 28.4 °F 93% 30.04 in 6.2 mi West 13.8 mph - N/A   Partly Cloudy
7:00 AM 30 °F - 28 °F 87% 30.05 in 9 mi West 13.4 mph - - Snow Light Snow
7:15 AM 30.2 °F 18.5 °F 28.4 °F 93% 30.04 in 6.2 mi West 17.3 mph - N/A   Partly Cloudy
7:45 AM 32.0 °F 20.1 °F 26.6 °F 80% 30.04 in 6.2 mi West 19.6 mph - N/A   Partly Cloudy
8:15 AM 32.0 °F 20.1 °F 26.6 °F 80% 30.06 in 6.2 mi West 19.6 mph - N/A   Partly Cloudy
8:45 AM 33.8 °F 22.2 °F 26.6 °F 75% 30.06 in 6.2 mi WNW 20.7 mph - N/A   Partly Cloudy
9:15 AM 35.6 °F 24.5 °F 24.8 °F 65% 30.09 in 6.2 mi WNW 20.7 mph - N/A   Partly Cloudy
9:45 AM 35.6 °F 24.5 °F 24.8 °F 65% 30.09 in 6.2 mi West 20.7 mph - N/A   Scattered Clouds
10:15 AM 35.6 °F 24.2 °F 24.8 °F 65% 30.09 in 6.2 mi WNW 21.9 mph - N/A   Scattered Clouds
10:45 AM 37.4 °F 27.5 °F 23.0 °F 56% 30.12 in 6.2 mi WNW 18.4 mph - N/A   Scattered Clouds
10:58 AM 37.4 °F 26.4 °F 21.2 °F 52% 30.12 in - NW 23.0 mph 41.4 mph N/A   Unknown
11:00 AM 37.4 °F 25.9 °F 21.2 °F 52% 30.12 in 6.2 mi NW 25.3 mph 41.4 mph N/A   Scattered Clouds
11:15 AM 37.4 °F 25.6 °F 21.2 °F 52% 30.12 in 6.2 mi WNW 26.5 mph 39.1 mph N/A   Partly Cloudy
11:45 AM 39.2 °F 27.2 °F 19.4 °F 45% 30.12 in 6.2 mi NW 31.1 mph 47.2 mph N/A   Partly Cloudy
12:15 PM 39.2 °F 28.0 °F 21.2 °F 49% 30.12 in 6.2 mi NW 26.5 mph 38.0 mph N/A   Partly Cloudy
12:45 PM 39.2 °F 28.0 °F 21.2 °F 49% 30.12 in 6.2 mi NW 26.5 mph - N/A   Scattered Clouds
1:00 PM 39 °F - 21 °F 35% 30.14 in 31 mi NW 26.8 mph - -   Partly Cloudy
1:15 PM 39.2 °F 28.5 °F 19.4 °F 45% 30.12 in 6.2 mi NW 24.2 mph - N/A   Partly Cloudy
1:45 PM 39.2 °F 27.8 °F 19.4 °F 45% 30.15 in 6.2 mi NW 27.6 mph 44.9 mph N/A   Partly Cloudy
2:15 PM 39.2 °F 27.0 °F 19.4 °F 45% 30.15 in 6.2 mi NW 32.2 mph 48.3 mph N/A   Partly Cloudy
2:45 PM 39.2 °F 28.3 °F 19.4 °F 45% 30.15 in 6.2 mi NW 25.3 mph 38.0 mph N/A   Partly Cloudy
3:15 PM 37.4 °F 26.4 °F 19.4 °F 48% 30.15 in 6.2 mi NW 23.0 mph - N/A   Partly Cloudy
3:45 PM 37.4 °F 26.6 °F 17.6 °F 45% 30.18 in 6.2 mi NW 21.9 mph 35.7 mph N/A   Partly Cloudy
4:15 PM 37.4 °F 26.6 °F 17.6 °F 45% 30.18 in 6.2 mi NW 21.9 mph 34.5 mph N/A   Partly Cloudy
4:45 PM 37.4 °F 27.8 °F 17.6 °F 45% 30.18 in 6.2 mi WNW 17.3 mph - N/A   Partly Cloudy
5:15 PM 37.4 °F 28.2 °F 17.6 °F 45% 30.21 in 6.2 mi NW 16.1 mph - N/A   Partly Cloudy
5:45 PM 35.6 °F 27.1 °F 19.4 °F 52% 30.21 in - WNW 12.7 mph - N/A   Clear
6:15 PM 33.8 °F 26.4 °F 19.4 °F 56% 30.21 in - West 9.2 mph - N/A   Clear
6:45 PM 33.8 °F 25.8 °F 21.2 °F 60% 30.24 in 6.2 mi West 10.4 mph - N/A   Partly Cloudy
7:00 PM 35 °F - 20 °F 42% 30.25 in 31 mi West 11.2 mph - -   Partly Cloudy
7:15 PM 33.8 °F 24.3 °F 21.2 °F 60% 30.24 in 6.2 mi West 13.8 mph - N/A   Partly Cloudy
7:45 PM 33.8 °F 26.4 °F 23.0 °F 65% 30.24 in - West 9.2 mph - N/A   Clear
8:15 PM 33.8 °F 25.8 °F 23.0 °F 65% 30.24 in 6.2 mi WSW 10.4 mph - N/A   Mostly Cloudy
8:45 PM 33.8 °F 25.8 °F 24.8 °F 70% 30.24 in - West 10.4 mph - N/A   Clear
9:45 PM 33.8 °F 28.6 °F 24.8 °F 70% 30.27 in 6.2 mi WSW 5.8 mph - N/A Snow Light Snow
10:45 PM 35.6 °F 28.0 °F 24.8 °F 65% 30.27 in 6.2 mi West 10.4 mph - N/A   Overcast
11:45 PM 33.8 °F 26.4 °F 24.8 °F 70% 30.27 in 6.2 mi WSW 9.2 mph - N/A   Mostly Cloudy